Content
SEND FEEDBACK

Daily
Averages
Monthly
Summary
United States of America

ST. LOUIS, MISSOURI


Home > North America > United States > Missouri
Elevation: 535 feet     Latitude: 38 45N     Longitude: 090 22W

WEATHER
 
SELECT A DAY
Number of Records: 200,411;   Date Range: 1/1/95 - 11/19/14
 
SHARE

PRINT THIS DATA

[ ← Previous Day ]
WEATHER ALMANAC - JANUARY 3, 2013
[ Next Day → ]
[ °C ]   °F
Weather ElementAverageHighLow
Temperature27.2 °F39.9 °F (2:54 pm)14 °F (6:54 am)
Dewpoint19.9 °F26.1 °F (3:54 pm)10 °F (7:54 am)
Humidity75 %88 % (6:54 am)55 % (2:54 pm)
Barometer30.37 in30.43 in (7:54 pm)30.27 in (1:54 am)
Wind Speed4.2 mph9.2 mph (9:54 am)
Weather ElementAverage
Visibility9.6 mi
Wind DirectionSSE (169.6 °)

Weather ElementTotal
Precipitation---
Heating Degree Days38.1 (Base 65)
Averaged from 23 records on January 3, 2013
WEATHER CONDITIONS BREAKOUT
WIND DIRECTION BREAKOUT
WEATHER BY HOUR - JANUARY 3, 2013
[ °C ]   °F
Local TimeTemperatureDewpointHumidityBarometerVisibilityWind DirectionWind SpeedGust SpeedPrecipitationEventsConditions
1:54 AM16.0 °F12.0 °F84 %30.27 in10.0 miWest (260°)5.8 mphClear
2:54 AM16.0 °F12.0 °F84 %30.28 in9.0 miCalmMostly Cloudy
3:54 AM18.0 °F14.0 °F84 %30.27 in10.0 miCalmScattered Clouds
4:54 AM19.0 °F12.9 °F77 %30.29 in10.0 miCalmClear
5:54 AM17.1 °F12.9 °F84 %30.31 in10.0 miCalmClear
6:54 AM14.0 °F10.9 °F88 %30.33 in10.0 miCalmClear
7:54 AM14.0 °F10.0 °F84 %30.35 in9.0 miCalmClear
8:54 AM21.9 °F17.1 °F82 %30.38 in8.0 miWNW (290°)4.6 mphClear
9:54 AM28.0 °F21.9 °F78 %30.40 in6.0 miWSW (250°)9.2 mphHaze
10:54 AM32.0 °F24.1 °F73 %30.40 in9.0 miWest (270°)5.8 mphClear
11:54 AM34.0 °F25.0 °F70 %30.38 in10.0 miWSW (250°)9.2 mphClear
12:54 PM37.0 °F25.0 °F62 %30.36 in10.0 miWSW (250°)9.2 mphClear
1:54 PM39.0 °F25.0 °F57 %30.35 in10.0 miWSW (240°)8.1 mphMostly Cloudy
2:54 PM39.9 °F25.0 °F55 %30.36 in10.0 miWest (270°)5.8 mphMostly Cloudy
3:54 PM37.9 °F26.1 °F62 %30.37 in10.0 miWest (270°)5.8 mphMostly Cloudy
4:54 PM34.0 °F24.1 °F67 %30.38 in10.0 miWest (260°)6.9 mphMostly Cloudy
5:54 PM33.1 °F24.1 °F70 %30.40 in10.0 miWSW (250°)5.8 mphOvercast
6:54 PM33.1 °F25.0 °F72 %30.42 in10.0 miWest (280°)3.5 mphOvercast
7:54 PM33.1 °F24.1 °F70 %30.43 in10.0 miCalmOvercast
8:54 PM30.0 °F23.0 °F75 %30.42 in10.0 miWSW (250°)5.8 mphMostly Cloudy
9:54 PM26.1 °F21.9 °F84 %30.43 in10.0 miCalmMostly Cloudy
10:54 PM26.1 °F21.0 °F81 %30.43 in10.0 miWSW (250°)6.9 mphClear
11:54 PM26.1 °F21.0 °F81 %30.43 in10.0 miWest (260°)3.5 mphClear
Hourly data recorded from KSUS, located miles away from St. Louis, Missouri







STORIES FROM OUR PARTNERS